Weather History for Novato, CA

Change the Weather History Date:

Thursday, January 9, 2014

  Actual Average (KAPC) Record (KAPC)
Temperature  
Mean Temperature 52 °F 46 °F  
Max Temperature 62 °F 54 °F 65 °F (2012)
Min Temperature 41 °F 37 °F 27 °F (2012)
Degree Days  
Heating Degree Days 14    
Month to date heating degree days  
Since 1 July heating degree days  
Cooling Degree Days 0    
Month to date cooling degree days  
Year to date cooling degree days  
Growing Degree Days 2 (Base 50)    
Moisture  
Dew Point 43 °F    
Average Humidity 77    
Maximum Humidity 100    
Minimum Humidity 41    
Precipitation  
Precipitation 0.00 in - 1.85 in (1959)
Month to date precipitation  
Year to date precipitation  
Since 1 July precipitation  
Sea Level Pressure  
Sea Level Pressure 30.23 in    
Wind  
Wind Speed 4 mph (North)    
Max Wind Speed 18 mph    
Max Gust Speed 24 mph    
Visibility 9 miles    
Events Fog    
T = Trace of Precipitation, MM = Missing Value Source: NWS Daily Summary

Daily Weather History Graph

Daily Weather History Graph

Search for Another Location

Airport:

Trip Planner

Search our weather history database for the weather conditions in past years. The results will help you decide how hot, cold, wet, or windy it might be!

Date:

Astronomy

Jan. 09, 2014 Rise Set
Actual Time 7:26 AM PST 5:08 PM PST
Civil Twilight 6:57 AM PST 5:37 PM PST
Nautical Twilight 6:24 AM PST 6:10 PM PST
Astronomical Twilight 5:53 AM PST 6:42 PM PST
Moon 12:36 PM PST (1/9) 1:42 AM PST (1/9)
Length of Visible Light 10h 39m
Length of Day
9h 41m
Waxing Gibbous, 67% of the Moon is Illuminated
Jan 9
Waxing Gibbous
Jan 15
Full
Jan 23
Last Quarter
Jan 30
New
Feb 6
First Quarter

Hourly Weather History & Observations

Time (PST) Temp. Windchill Dew Point Humidity Pressure Visibility Wind Dir Wind Speed Gust Speed Precip Events Conditions
12:15 AM 41.0 °F - 41.0 °F 100% 30.22 in 0.2 mi Calm Calm - N/A Fog Fog
12:35 AM 41.0 °F 38.0 °F 41.0 °F 100% 30.22 in 3.0 mi SE 4.6 mph - N/A   Clear
12:55 AM 44.6 °F 42.2 °F 44.6 °F 100% 30.22 in 10.0 mi ESE 4.6 mph - N/A   Clear
1:15 AM 44.6 °F 43.1 °F 44.6 °F 100% 30.21 in 10.0 mi East 3.5 mph - N/A   Clear
1:35 AM 42.8 °F - 42.8 °F 100% 30.21 in 10.0 mi Calm Calm - N/A   Clear
1:55 AM 41.0 °F - 41.0 °F 100% 30.22 in 10.0 mi Calm Calm - N/A   Clear
2:15 AM 42.8 °F - 42.8 °F 100% 30.22 in 10.0 mi Calm Calm - N/A   Clear
2:35 AM 41.0 °F - 41.0 °F 100% 30.22 in 9.0 mi Calm Calm - N/A   Clear
2:55 AM 41.0 °F - 41.0 °F 100% 30.21 in 8.0 mi Calm Calm - N/A   Clear
3:15 AM 41.0 °F 39.0 °F 41.0 °F 100% 30.21 in 8.0 mi ENE 3.5 mph - N/A   Clear
3:35 AM 42.8 °F - 42.8 °F 100% 30.21 in 10.0 mi Calm Calm - N/A   Mostly Cloudy
3:55 AM 46.4 °F - 46.4 °F 100% 30.20 in 10.0 mi Calm Calm - N/A   Overcast
4:15 AM 46.4 °F 44.3 °F 46.4 °F 100% 30.21 in 10.0 mi ENE 4.6 mph - N/A   Unknown
4:35 AM 46.4 °F - 46.4 °F 100% 30.21 in 10.0 mi Calm Calm - N/A   Unknown
4:55 AM 46.4 °F - 46.4 °F 100% 30.21 in 10.0 mi Calm Calm - N/A   Unknown
5:15 AM 46.4 °F - 46.4 °F 100% 30.21 in 10.0 mi Calm Calm - N/A   Unknown
5:35 AM 46.4 °F - 46.4 °F 100% 30.22 in 8.0 mi Calm Calm - N/A   Unknown
5:55 AM 48.2 °F - 48.2 °F 100% 30.20 in 10.0 mi Calm Calm - N/A   Unknown
6:15 AM 48.2 °F - 48.2 °F 100% 30.19 in 10.0 mi ENE 5.8 mph - N/A   Unknown
6:35 AM 46.4 °F 42.4 °F 46.4 °F 100% 30.20 in 10.0 mi ENE 8.1 mph - N/A   Unknown
6:55 AM 46.4 °F 42.4 °F 46.4 °F 100% 30.21 in 10.0 mi NNE 8.1 mph - N/A   Unknown
7:15 AM 48.2 °F - 48.2 °F 100% 30.21 in 10.0 mi North 6.9 mph - N/A   Unknown
7:35 AM 46.4 °F 43.5 °F 46.4 °F 100% 30.21 in 1.8 mi North 5.8 mph - N/A   Mist
7:55 AM 46.4 °F 43.5 °F 46.4 °F 100% 30.22 in 0.8 mi North 5.8 mph - N/A   Mist
8:15 AM 46.4 °F - 46.4 °F 100% 30.22 in 0.8 mi Calm Calm - N/A   Overcast
8:35 AM 46.4 °F 44.3 °F 46.4 °F 100% 30.22 in 0.2 mi South 4.6 mph - N/A Fog Fog
8:55 AM 50.0 °F - 50.0 °F 100% 30.24 in 10.0 mi ENE 5.8 mph - N/A   Partly Cloudy
9:15 AM 51.8 °F - 51.8 °F 100% 30.24 in 10.0 mi North 3.5 mph - N/A   Clear
9:35 AM 53.6 °F - 53.6 °F 100% 30.24 in 10.0 mi NNW 6.9 mph - N/A   Clear
9:55 AM 55.4 °F - 50.0 °F 82% 30.24 in 10.0 mi Calm Calm - N/A   Clear
10:15 AM 55.4 °F - 50.0 °F 82% 30.25 in 10.0 mi North 9.2 mph - N/A   Clear
10:35 AM 55.4 °F - 53.6 °F 94% 30.27 in 10.0 mi NNE 9.2 mph - N/A   Clear
10:55 AM 55.4 °F - 53.6 °F 94% 30.26 in 10.0 mi NE 9.2 mph - N/A   Clear
11:15 AM 55.4 °F - 51.8 °F 88% 30.25 in 10.0 mi NE 6.9 mph - N/A   Clear
11:35 AM 59.0 °F - 46.4 °F 63% 30.25 in 10.0 mi NW 11.5 mph - N/A   Clear
11:55 AM 60.8 °F - 46.4 °F 59% 30.24 in 10.0 mi NW 11.5 mph - N/A   Clear
12:35 PM 62.6 °F - 44.6 °F 52% 30.22 in 10.0 mi NNW 4.6 mph - N/A   Clear
12:55 PM 62.6 °F - 44.6 °F 52% 30.22 in 10.0 mi NNW 10.4 mph - N/A   Clear
1:15 PM 62.6 °F - 41.0 °F 45% 30.20 in 10.0 mi NW 8.1 mph - N/A   Clear
1:35 PM 62.6 °F - 41.0 °F 45% 30.20 in 10.0 mi WNW 4.6 mph - N/A   Clear
1:55 PM 62.6 °F - 41.0 °F 45% 30.19 in 10.0 mi NW 9.2 mph - N/A   Clear
2:15 PM 62.6 °F - 41.0 °F 45% 30.19 in 10.0 mi WNW 6.9 mph - N/A   Clear
3:35 PM 59.0 °F - 46.4 °F 63% 30.21 in 10.0 mi West 18.4 mph - N/A   Mostly Cloudy
3:55 PM 59.0 °F - 44.6 °F 59% 30.21 in 10.0 mi West 15.0 mph 23.0 mph N/A   Overcast
4:15 PM 59.0 °F - 42.8 °F 55% 30.21 in 10.0 mi West 15.0 mph - N/A   Overcast
4:35 PM 59.0 °F - 41.0 °F 51% 30.22 in 10.0 mi West 8.1 mph 20.7 mph N/A   Overcast
4:55 PM 57.2 °F - 39.2 °F 51% 30.22 in 10.0 mi WNW 3.5 mph - N/A   Mostly Cloudy
5:15 PM 57.2 °F - 39.2 °F 51% 30.21 in 10.0 mi South 3.5 mph - N/A   Clear
5:35 PM 57.2 °F - 37.4 °F 48% 30.21 in 10.0 mi WNW 10.4 mph - N/A   Clear
5:55 PM 57.2 °F - 37.4 °F 48% 30.22 in 10.0 mi NW 11.5 mph 20.7 mph N/A   Clear
6:15 PM 59.0 °F - 35.6 °F 42% 30.23 in 10.0 mi WNW 15.0 mph 20.7 mph N/A   Clear
6:35 PM 59.0 °F - 35.6 °F 42% 30.23 in 10.0 mi WNW 8.1 mph - N/A   Clear
6:55 PM 57.2 °F - 37.4 °F 48% 30.23 in 10.0 mi West 6.9 mph - N/A   Clear
7:15 PM 55.4 °F - 37.4 °F 51% 30.24 in 10.0 mi NW 5.8 mph - N/A   Clear
7:35 PM 57.2 °F - 37.4 °F 48% 30.24 in 10.0 mi NW 4.6 mph - N/A   Clear
7:55 PM 57.2 °F - 35.6 °F 44% 30.25 in 10.0 mi WNW 4.6 mph - N/A   Clear
8:15 PM 57.2 °F - 33.8 °F 41% 30.25 in 10.0 mi WNW 13.8 mph 19.6 mph N/A   Clear
8:35 PM 55.4 °F - 33.8 °F 44% 30.24 in 10.0 mi NW 12.7 mph 20.7 mph N/A   Clear
8:55 PM 55.4 °F - 35.6 °F 47% 30.25 in 10.0 mi NNW 15.0 mph 24.2 mph N/A   Clear
9:15 PM 53.6 °F - 39.2 °F 58% 30.26 in 10.0 mi North 8.1 mph 17.3 mph N/A   Clear
9:35 PM 50.0 °F - 41.0 °F 71% 30.26 in 10.0 mi North 10.4 mph - N/A   Clear
9:55 PM 48.2 °F - 41.0 °F 76% 30.26 in 10.0 mi ENE 4.6 mph - N/A   Clear
10:15 PM 48.2 °F - 41.0 °F 76% 30.26 in 10.0 mi ENE 5.8 mph - N/A   Clear
10:35 PM 50.0 °F - 41.0 °F 71% 30.26 in 10.0 mi NNE 3.5 mph - N/A   Clear
10:55 PM 48.2 °F - 41.0 °F 76% 30.25 in 10.0 mi ENE 8.1 mph - N/A   Clear
11:15 PM 48.2 °F - 41.0 °F 76% 30.26 in 10.0 mi NE 4.6 mph - N/A   Clear
11:35 PM 48.2 °F - 41.0 °F 76% 30.26 in 10.0 mi NNE 9.2 mph - N/A   Clear
11:55 PM 48.2 °F - 42.8 °F 82% 30.25 in 10.0 mi NE 8.1 mph - N/A   Clear